Regional Weather Roundup
Issued by NWS

Home | Current Version | Previous Version | Graphics & Text | Print | Product List | Glossary On
Versions: 1 2 3 4 5 6 7 8 9 10 11 12 13 14 15 16 17 18 19 20 21 22 23 24 25 26 27 28 29 30 31 32 33 34 35 36 37 38 39 40 41 42 43 44 45 46 47 48 49 50
000
ASUS45 KABQ 172001
RWRNM
NEW MEXICO REGIONAL WEATHER ROUNDUP
NATIONAL WEATHER SERVICE ALBUQUERQUE NM
100 PM MST FRI NOV 17 2017

NOTE: "FAIR" MEANS FEW OR NO CLOUDS BELOW 12,000 FEET AGL WITH NO
       SIGNIFICANT WEATHER OR OBSTRUCTIONS TO VISION.

      THIS PRODUCT IS RELEASED AS TWO VERSIONS.  ONE VERSION NEAR
      THE TOP OF THE HOUR CONTAINING PRELIMINARY DATA FROM ALBUQUERQUE
      AND OTHER STATIONS.  A FINAL VERSION WITH ADDITIONAL DATA IS
      ISSUED ABOUT 10 MINUTES AFTER THE HOUR.

NMZ501-503-504-510>518-172100-
NORTHWEST PLATEAU/NORTHCENTRAL MOUNTAINS

CITY           SKY/WX    TMP DP  RH WIND       PRES   REMARKS
FARMINGTON     CLOUDY    58  35  42 W24G37    29.94S
LOS ALAMOS     PTSUNNY   57  29  35 SW17G29   30.01F
SANTA FE       PTSUNNY   62  30  29 SW15G26   29.97F
TAOS           PTSUNNY   54  27  35 SW16      29.99F
ANGEL FIRE     CLOUDY    47  29  50 SW20G33   30.00F

$$
NMZ402-403-502-505>509-172100-
WESTCENTRAL MOUNTAINS/SOUTHWEST MOUNTAINS

CITY           SKY/WX    TMP DP  RH WIND       PRES   REMARKS
GALLUP         CLOUDY    57  32  38 SW23G33   30.05F
GRANTS         PTSUNNY   56  36  45 W20G26    30.08F
SILVER CITY    FAIR      72  15  11 W21G30    30.10F

$$
NMZ407-409-411-412-172100-
SOUTHERN DESERTS

CITY           SKY/WX    TMP DP  RH WIND       PRES   REMARKS
DEMING         FAIR      77  22  13 W21G29    30.03F
LAS CRUCES     FAIR      76  20  12 SW15G22   30.05F
HOLLOMAN AFB   FAIR      82  20  10 SW12G18   30.00F
ALAMOGORDO     FAIR      77  23  13 S7        30.00F
T OR C         FAIR      80  18  10 SW15      29.97F

$$
NMZ519>523-172100-
CENTRAL VALLEYS/CENTRAL HIGHLANDS

CITY           SKY/WX    TMP DP  RH WIND       PRES   REMARKS
ALBUQUERQUE    PTSUNNY   68  22  17 SW14G22   29.97F
DOUBLE EAGLE   PTSUNNY   70  30  23 SW31G43   29.99F
MORIARTY ARPT  CLOUDY    67  19  15 SW13G20   30.02F
CLINES CORNERS NOT AVBL
BELEN          CLOUDY    73  23  15 W20       29.97F
SOCORRO        CLOUDY    73  19  13 SE5       29.97F

$$
NMZ524>526-539-540-172100-
SOUTHCENTRAL MOUNTAINS

CITY           SKY/WX    TMP DP  RH WIND       PRES   REMARKS
RUIDOSO        FAIR      72  28  20 W24G40    30.05F

$$
NMZ527>531-172100-
NORTHEAST HIGHLANDS/NORTHEAST PLAINS

CITY           SKY/WX    TMP DP  RH WIND       PRES   REMARKS
LAS VEGAS      FAIR      64  27  24 SW35G43   29.92F
RATON          FAIR      67  29  24 W24G47    29.81F
CLAYTON        FAIR      74  33  22 W31G46    29.74F

$$
NMZ532>537-172100-
EASTCENTRAL PLAINS

CITY           SKY/WX    TMP DP  RH WIND       PRES   REMARKS
SANTA ROSA     FAIR      78  24  14 W28G39    29.85S
TUCUMCARI      FAIR      80  24  12 W26G38    29.78F
CANNON AFB     FAIR      80  18  10 W28G37    29.86F
CLOVIS AIRPORT FAIR      80  22  11 W29G35    29.86F

$$
NMZ028-029-538-172100-
SOUTHEAST PLAINS

CITY           SKY/WX    TMP DP  RH WIND       PRES   REMARKS
ROSWELL        FAIR      89  24   9 SW21G30   29.84F
ARTESIA        FAIR      82  28  14 SW24G33   29.88F
CARLSBAD       FAIR      82  29  14 W30G38    29.89F
HOBBS          SUNNY     81  25  12 SW25G31   29.91F


$$




USA.gov is the U.S. government's official web portal to all federal, state and local government web resources and services.